Location: A�t Bou Chrif
(32.7193°N, 5.2385°W)
Time: 12:47:55
(UTC+00:00)

Daily predictions for brighter satellites

Satellite Brightness Start Highest point End
(mag) Time Altitude Azimuth Time Altitude Azimuth Time Altitude Azimuth
BREEZE-M DEB 4.4 19:28:55 10° NNW 19:32:26 47° NE 19:44:13 10° ESE
Iridium 2 3.8 19:32:13 10° N 19:35:55 54° E 19:39:34 10° SSE
Cosmos 1346 Rocket 3.4 19:35:54 10° SSW 19:39:49 62° W 19:43:46 10° N
Cosmos 1900 4.3 19:35:20 10° SSW 19:40:09 65° ESE 19:45:04 10° NNE
KM-V1 4.3 19:35:19 10° W 19:41:07 72° S 19:44:06 10° E
Meteor 1-26 Rocket 4.4 19:36:03 10° N 19:41:23 49° E 19:46:35 10° SSE
Cosmos 1302 Rocket 4.0 19:39:45 10° NNW 19:44:58 80° ENE 19:50:11 10° SSE
Cosmos 1408 Rocket 3.7 19:42:41 10° S 19:47:08 83° W 19:51:37 10° N
COSMOS 2406 3.6 19:43:54 10° S 19:49:16 42° ESE 19:54:38 10° NE
Cosmos 1743 Rocket 3.8 19:46:47 10° SSE 19:51:03 50° E 19:55:22 10° NNE
Cosmos 2366 rocket 4.0 19:45:22 10° S 19:51:35 68° E 19:57:45 10° NNE
USA 267 3.2 19:46:47 10° NE 19:53:20 74° SE 19:59:51 10° SW
Cosmos 1862 4.2 19:55:57 10° SSE 19:59:25 28° E 20:02:55 10° NNE
Sich 1 4.5 19:57:39 12° SE 20:00:23 19° E 20:03:33 10° NE
CZ-2C R/B 4.3 19:56:34 10° NNE 20:00:44 34° E 20:04:49 10° SSE
CZ-2C R/B 3.8 19:57:34 10° S 20:02:21 50° W 20:07:01 10° NNW
SJ-6B 3.2 19:58:25 10° SSE 20:02:22 49° ENE 20:06:17 10° N
MOS 1 Rocket 4.1 19:57:17 10° N 20:02:39 66° WNW 20:07:52 10° SSW
SL-8 Rocket 4.3 19:57:45 10° SSW 20:03:53 73° W 20:10:06 10° N
Cosmos 2082 Rocket 3.4 20:00:31 10° SSE 20:04:35 20° E 20:08:40 10° NE
Cosmos 292 Rocket 4.2 20:02:37 10° NNW 20:07:18 63° WSW 20:11:59 10° S
Gbstr 26 Del rocket 2.6 20:04:36 10° NW 20:08:23 79° SW 20:11:10 17° SE
CZ-4 R/B 4.4 20:07:57 10° WSW 20:09:31 12° W 20:11:04 10° WNW
Cosmos 1500 Rocket 3.4 20:06:07 10° S 20:10:25 84° E 20:14:45 10° N
Ariane Rocket 3.0 20:09:25 10° SSE 20:14:28 90° ENE 20:19:33 10° NNW
USA 186 1.7 20:13:48 10° S 20:16:08 50° W 20:18:22 10° NNW
Resurs 1-3 4.3 20:13:31 18° SE 20:16:09 35° ENE 20:20:08 10° N
SL-08 R/B 4.4 20:12:13 10° S 20:18:26 72° E 20:24:35 10° N
FREGAT/IRIS 2.4 20:17:28 14° S 20:19:35 70° WSW 20:22:13 10° NNW
ARGOS 3.7 20:14:37 10° S 20:19:55 59° W 20:25:14 10° NNW
Cosmos 407 Rocket 3.9 20:15:22 10° S 20:20:20 41° ESE 20:25:19 10° NNE
BREEZE-M DEB (TANK) 2.4 20:13:48 10° NW 20:20:26 77° SW 20:21:57 25° SE
Cosmos 1992 Rocket 4.0 20:18:32 10° N 20:23:45 68° ENE 20:27:37 18° SSE
CZ-2C R/B 2.9 20:23:26 10° N 20:28:35 67° WNW 20:33:45 10° SSW
USA 238 DEB 4.3 20:27:11 10° S 20:32:45 30° ESE 20:38:26 10° NE
USA 238 4.3 20:27:20 10° SSE 20:32:52 30° ESE 20:38:31 10° NE
Cosmos 1805 Rocket 3.5 20:29:09 10° S 20:33:31 70° E 20:37:56 10° NNE
H-2A R/B 3.8 20:29:10 10° SSW 20:33:44 30° W 20:38:12 10° NW
Meteor 1-10 Rocket 4.5 20:30:01 10° N 20:35:34 52° E 20:38:46 25° SE
Cosmos 1782 3.4 20:32:47 10° NNW 20:36:44 57° W 20:40:30 11° S
BREEZE-M DEB (TANK) 2.8 20:34:05 10° NW 20:38:14 32° NNE 20:39:00 27° ENE
CZ-3A R/B 4.1 20:07:03 10° W 20:42:12 59° SSW 20:48:05 26° SE
SL-4 R/B 3.2 20:39:39 10° WSW 20:43:34 41° NW 20:47:13 10° NNE
Cosmos 1140 Rocket 3.5 20:40:53 10° S 20:45:58 56° ESE 20:51:06 10° NNE
Cosmos 1980 Rocket 4.0 20:42:56 10° NNE 20:45:58 14° NE 20:47:05 14° ENE
Cosmos 1023 Rocket 4.4 20:45:17 10° S 20:50:28 65° ESE 20:55:42 10° NNE
ATLAS 5 CENTAUR R/B 2.7 20:48:34 10° NNW 20:54:33 59° ENE 20:57:17 35° ESE
Cosmos 1833 Rocket 2.9 20:49:23 10° SSW 20:54:58 73° WNW 21:00:36 10° NNE
Cosmos 1633 Rocket 3.4 20:55:06 44° E 20:55:06 44° E 20:59:18 10° NNE
SPOT 3 Rocket 3.6 20:54:53 27° S 20:57:50 81° WSW 21:03:04 10° NNW
Cosmos 389 Rocket 2.3 20:54:51 10° N 20:58:13 79° ENE 20:58:13 79° ENE
Cosmos 2228 Rocket 3.7 20:54:42 10° NNW 20:59:00 54° W 21:01:38 22° SSW
Cosmos 1867 3.4 20:56:01 10° SSW 21:01:22 68° ESE 21:06:47 10° NNE
Cosmos 1812 2.5 20:57:39 10° N 21:01:30 78° E 21:01:40 76° ESE
CENTAUR R/B 4.1 21:04:45 16° ENE 21:04:45 16° ENE 21:06:24 10° NE
Cosmos 1697 Rocket 3.3 20:56:56 10° N 21:02:09 38° ENE 21:03:04 35° E
Resurs 01 Rocket 1.5 21:05:06 55° SSE 21:06:03 89° ENE 21:10:29 10° NNW
Skynet4D Del rocket 3.9 21:01:03 10° WSW 21:06:15 45° S 21:06:47 44° SSE
Landsat 7 4.4 21:09:00 39° ENE 21:09:00 39° ENE 21:13:16 10° N
Cosmos 220 Rocket 3.9 21:08:42 10° NNW 21:12:46 71° NE 21:12:46 71° NE
Cosmos 1707 Rocket 3.5 21:08:49 10° N 21:12:53 63° ENE 21:12:53 63° ENE
Cosmos 1656 3.6 21:07:55 10° NNW 21:13:26 86° WSW 21:14:58 50° SSE
Cosmos 676 Rocket 3.9 21:14:02 57° SSE 21:14:50 66° ESE 21:20:07 10° NNE
IGS 5A 4.3 21:17:35 39° NE 21:17:35 39° NE 21:20:39 10° N
Cosmos 1934 Rocket 3.9 21:16:23 33° S 21:19:26 83° E 21:25:49 10° N
Aureole 1 Rocket 4.1 21:15:58 22° SSW 21:20:12 84° ESE 21:27:58 10° NNE
NOSS 3-2 (A) 3.1 21:23:47 23° SSW 21:27:21 84° ESE 21:33:26 10° NNE
GP-B 3.6 21:27:18 10° N 21:30:41 50° NNE 21:30:41 50° NNE
NOSS 3-2 (C) 4.3 21:35:51 31° NE 21:35:51 31° NE 21:39:07 10° NE
ERS-1 Rocket 4.0 21:36:08 34° NE 21:36:08 34° NE 21:39:42 10° N
USA 245 4.4 21:42:10 66° S 21:43:09 84° WSW 21:49:38 10° NNW
Meteor 2-20 Rocket 4.3 21:38:15 10° N 21:44:26 76° E 21:44:35 76° E
SL-16 R/B 4.4 21:42:22 10° NNE 21:44:17 13° NE 21:44:17 13° NE
Cosmos 1954 Rocket 4.5 21:46:57 47° WSW 21:48:10 59° WNW 21:53:26 10° N
Cosmos 2082 Rocket 3.3 21:42:52 10° SW 21:48:17 43° WNW 21:53:41 10° N
Cosmos 2369 3.6 21:44:28 10° NNW 21:50:01 84° NW 21:50:01 84° NW
Spot 2 Rocket 3.7 21:51:37 69° WNW 21:51:37 69° WNW 21:56:19 10° NNW
Cosmos 1818 3.7 21:48:07 10° NNW 21:53:03 71° WNW 21:53:03 71° WNW
Terra 3.5 22:00:01 26° NNE 22:00:01 26° NNE 22:02:23 10° N
Cosmos 2278 4.0 21:53:48 10° NNW 21:58:39 61° NNE 21:58:39 61° NNE
Cosmos 2123 Rocket 4.2 21:56:04 10° NNW 22:02:11 63° W 22:02:49 60° WSW
Cosmos 1605 Rocket 4.2 22:05:45 60° WSW 22:06:19 63° W 22:12:22 10° N
USA 234 3.7 22:06:06 49° NE 22:06:35 49° NE 22:12:50 10° NNW
Cosmos 2322 Rocket 4.3 22:03:52 10° NNE 22:06:13 15° NE 22:06:13 15° NE
Cosmos 1980 Rocket 3.1 22:24:51 10° NNW 22:28:51 46° NW 22:28:51 46° NW
ATLAS 5 CENTAUR R/B 4.2 22:34:15 10° WNW 22:38:50 22° WSW 22:38:50 22° WSW
CENTAUR R/B 3.4 22:51:50 42° NW 22:51:50 42° NW 22:57:54 10° NNE
Lacrosse 5 4.4 23:23:19 10° NNW 23:24:41 18° NNW 23:24:41 18° NNW
SL-16 R/B 4.1 23:23:49 10° NNW 23:26:08 26° NNW 23:26:08 26° NNW
Cosmos 2322 Rocket 4.3 23:46:09 10° NNW 23:48:01 21° NNW 23:48:01 21° NNW
